FREGAT DEB (TANK), 37756

Orbit data source: Space-Track

FREGAT DEB (TANK), 37756 is space debris in LEO originally from a launch on Mon, 18 Jul 2011 UTC launched from the Tyuratam Missile And Space Complex (TTMTR). Debris objects in space refer to the collection of defunct objects orbiting the Earth. Examples of debris include non-operational satellites, rocket bodies, and fragments generated from explosions, collisions, or faulty payload assembly.

Loading next visibility...
Identifier
37756, 2011-037B
Orbit
LEO
Country
Flag of CISCIS
Related business
Manufacturer
Lavochkin
Mission
Spacecraft
Bus & Motor
FREGAT SBB, Unknown motor
Mass
360 kg wet, 360 kg dry
Launch date (UTC)
2011-07-18 (14 years ago)
Launch vehicle
Unknown
Launch site
Tyuratam Missile And Space Complex (TTMTR)
Object type
Payload
Rocket body
Debris
Shape & HBR
Torus, 1.9 m
Radar Cross Section
6.703 m², Large (>1 m²)

Expand to show TLE details & history
Last TLE update: 8 hours ago

TLE from 8 hours ago
0 FREGAT DEB (TANK)
1 37756U 11037B   25315.28769546  .00009301  00000-0  18766-2 0  9996
2 37756  51.4492 317.5875 1816563 300.3466  42.9927 11.45494527590237
Epoch: 2025-11-11T06:54Z
TLE epoch observation values (Epoch: 2025-11-11T06:54:16.887Z)
Latitude
-0.00001°
Longitude
163.34072°
Altitude
986.851 km
Speed
7.767 km/s
True Right ascension
21h 10m 20s
True Declination
0° 00' 00"
Sunlit
Object was in daylight at epoch
Visualization orbit readout
Latitude
Unknown
Longitude
Unknown
Altitude
Unknown
Speed
Unknown
Apparent Right ascension
Unknown
Apparent Declination
Unknown
Sunlit
N/A
Visualization observer readout
Local Sidereal Time
11:20:58
Azimuth
Unknown
Elevation
Unknown
Doppler factor
Unknown
Orbital elements
Apogee altitude
3,445.116 km
Perigee altitude
424.854 km
Semi-major axis
8,313.122 km
Eccentricity
0.18166
Inclination
51.4492°
RAAN
317.5875°
Arg. of periapsis
300.3466°
True anomaly
59.74093°
Mean anomaly
42.9927°
Eccentric anomaly
51.09183°
Mean motion
2.8635 °/min
Orbital period
125.72 mins
BSTAR
0.0018766
Loading maneuver chart data...
Computing Atmospheric mass density...
Loading historical data...
Loading historical data...
Loading historical data...
Loading historical data...
Loading historical data...
Loading historical data...
Loading historical data...

Documentation

Showing up to 5 results
|